Flag for United Kingdom Weather past 2 weeks in Greenwich Borough, England, United Kingdom

Now
43 °F

Clear.


Feels Like: 39 °F
Forecast: 47 / 59 °F
Wind: 7 mph from Southwest

Location: Northolt

Current Time: Mar 7, 2015 at 1:14:00 AM

Latest Report: Mar 6, 2015 at 11:50 PM


Visibility: 10 mi

Pressure: 30.39 "Hg

Humidity: 76%

Dew point: 36 °F

Location of Greenwich BoroughLocation

Historic Weather in Greenwich Borough — Graph

°F

Greenwich Borough temperature yesterday

Maximum temperature yesterday: 55 °F (at 1:50 PM)
Minimum temperature yesterday: 43 °F (at 6:50 AM)
Average temperature yesterday: 47 °F

Past Weeks' High & Low Weather Summary

 TemperatureHumidityPressure
High55 °F (Mar 6, 1:50 PM)100% (Feb 20, 3:50 AM)30.72 "Hg (Feb 20, 3:50 AM)
Low27 °F (Feb 22, 5:50 AM)29% (Mar 2, 3:50 PM)29.24 "Hg (Feb 22, 9:50 PM)
Average43 °F74%29.89 "Hg
* Reported Feb 19 11:50 PM — Mar 6 11:50 PM, Greenwich Borough, Weather by CustomWeather, © 2015

Note: Actual official high and low records may vary slightly from our data, if they occured in-between our weather recording intervals... More about our weather records

Advertising

Greenwich Borough weather history for previous 24 hours

 ConditionsComfort  
Time TempWeatherWind HumidityBarometerVisibility
11:50 PM
Fri, Mar 6
43 °FClear.7 mph76%30.39 "Hg10 mi
10:50 PM43 °FClear.6 mph76%30.39 "Hg10 mi
9:50 PM43 °FClear.8 mph76%30.42 "Hg10 mi
8:50 PM45 °FClear.10 mph71%30.42 "HgN/A
7:50 PM45 °FClear.9 mph71%30.45 "Hg10 mi
6:50 PM46 °FClear.13 mph66%30.42 "Hg10 mi
5:50 PM48 °FClear.13 mph62%30.42 "Hg10 mi
4:50 PM52 °FSunny.10 mph47%30.39 "Hg10 mi
3:50 PM54 °FSunny.15 mph44%30.42 "Hg10 mi
2:50 PM55 °FPartly sunny.14 mph47%30.45 "HgN/A
1:50 PM55 °FPartly sunny.16 mph51%30.45 "HgN/A
12:50 PM54 °FPartly sunny.14 mph54%30.51 "HgN/A
11:50 AM54 °FPartly sunny.15 mph51%30.51 "HgN/A
10:50 AM50 °FBroken clouds.13 mph58%30.54 "HgN/A
9:53 AM48 °FPartly sunny.12 mph62%30.57 "HgN/A
8:50 AM45 °FPartly sunny.7 mph66%30.60 "HgN/A
7:50 AM43 °FBroken clouds.5 mph71%30.60 "HgN/A
6:50 AM43 °FPartly sunny.6 mph71%30.57 "HgN/A
5:50 AM45 °FOvercast.7 mph66%30.57 "HgN/A
4:50 AM45 °FOvercast.12 mph61%30.60 "HgN/A
3:50 AM45 °FOvercast.6 mph66%30.60 "HgN/A
2:50 AM45 °FOvercast.7 mph66%30.60 "HgN/A
1:50 AM45 °FOvercast.7 mph66%30.60 "HgN/A
Weather by CustomWeather, © 2015

See weather overviewHow to use our weather pages